TimeHST,TemperatureF,Dew PointF,Humidity,Sea Level PressureIn,VisibilityMPH,Wind Direction,Wind SpeedMPH,Gust SpeedMPH,PrecipitationIn,Events,Conditions,WindDirDegrees,DateUTC
12:54 AM,73.9,64.0,71,30.07,10.0,NE,12.7,-,N/A,,Overcast,40,2012-09-14 10:54:00
1:54 AM,73.9,66.0,76,30.06,10.0,NE,12.7,-,N/A,,Overcast,40,2012-09-14 11:54:00
3:54 AM,71.1,63.0,75,30.06,10.0,ENE,8.1,-,N/A,,Mostly Cloudy,60,2012-09-14 13:54:00
4:54 AM,72.0,63.0,73,30.05,10.0,NE,11.5,-,N/A,,Partly Cloudy,40,2012-09-14 14:54:00
5:54 AM,73.0,64.0,73,30.06,10.0,NE,12.7,-,N/A,,Scattered Clouds,40,2012-09-14 15:54:00
6:54 AM,75.0,62.1,64,30.06,10.0,NE,12.7,-,N/A,,Scattered Clouds,40,2012-09-14 16:54:00
7:54 AM,77.0,62.1,60,30.08,10.0,East,10.4,21.9,N/A,,Scattered Clouds,80,2012-09-14 17:54:00
8:54 AM,80.1,64.0,58,30.09,10.0,ENE,12.7,-,N/A,,Scattered Clouds,60,2012-09-14 18:54:00
9:54 AM,84.0,63.0,49,30.07,10.0,ENE,17.3,27.6,N/A,,Scattered Clouds,70,2012-09-14 19:54:00
10:54 AM,77.0,66.9,71,30.09,10.0,NE,20.7,26.5,N/A,,Scattered Clouds,50,2012-09-14 20:54:00
11:54 AM,82.0,62.1,51,30.05,10.0,ENE,18.4,25.3,N/A,,Scattered Clouds,70,2012-09-14 21:54:00
12:54 PM,82.9,66.0,56,30.03,10.0,ENE,21.9,29.9,0.01,,Scattered Clouds,60,2012-09-14 22:54:00
1:54 PM,84.9,64.9,51,30.00,10.0,ENE,21.9,28.8,N/A,,Scattered Clouds,70,2012-09-14 23:54:00
2:54 PM,82.9,64.0,53,29.99,10.0,ENE,23.0,31.1,N/A,,Scattered Clouds,70,2012-09-15 00:54:00
3:54 PM,84.0,64.0,51,29.98,10.0,ENE,17.3,27.6,N/A,,Scattered Clouds,60,2012-09-15 01:54:00
4:54 PM,80.1,64.9,60,29.99,10.0,East,18.4,26.5,N/A,,Scattered Clouds,80,2012-09-15 02:54:00
5:54 PM,79.0,-9999,N/A,30.00,10.0,ENE,16.1,27.6,N/A,,Scattered Clouds,70,2012-09-15 03:54:00
6:54 PM,77.0,64.4,65,30.02,10.0,ENE,15.0,21.9,N/A,,Scattered Clouds,60,2012-09-15 04:54:00
7:54 PM,75.9,62.1,62,30.04,10.0,ENE,11.5,-,N/A,,Scattered Clouds,70,2012-09-15 05:54:00
8:54 PM,75.2,64.4,69,30.07,10.0,ENE,12.7,-,N/A,,Scattered Clouds,60,2012-09-15 06:54:00
9:54 PM,73.4,64.4,73,30.08,10.0,East,11.5,-,N/A,,Scattered Clouds,80,2012-09-15 07:54:00
10:54 PM,75.0,66.0,73,30.08,-9999.0,East,12.7,-,N/A,,Unknown,80,2012-09-15 08:54:00
11:54 PM,75.0,66.0,73,30.08,10.0,NE,11.5,-,N/A,,Overcast,50,2012-09-15 09:54:00